Location: Nitra
(0.0000°N, 18.0833°E)
Time: 13:50:06
(UTC+02:00)

Transit 4A - All Passes

Search period start: 26 March 2023 00:00
Search period end: 05 April 2023 01:00
Orbit: 868 x 976 km, 66.8° (Epoch: 25 March)

Date Brightness Start Highest point End Pass type
(mag) Time Alt. Az. Time Alt. Az. Time Alt. Az.
26 Mar - 04:21:46 10° SSE 04:25:25 17° ESE 04:28:59 10° ENE visible
26 Mar - 06:06:12 10° SW 06:11:28 35° WNW 06:16:41 10° N visible
26 Mar - 17:16:31 10° NNW 17:22:50 83° ENE 17:29:15 10° SSE daylight
27 Mar - 04:29:34 10° S 04:34:34 29° ESE 04:39:31 10° NE visible
27 Mar - 06:16:25 10° WSW 06:20:36 20° WNW 06:24:46 10° NNW visible
27 Mar - 15:43:53 10° NE 15:45:52 11° ENE 15:47:52 10° E daylight
27 Mar - 17:25:46 10° NNW 17:31:59 60° WSW 17:38:16 10° S daylight
28 Mar - 04:38:04 10° S 04:43:43 51° ESE 04:49:18 10° NE visible
28 Mar - 06:28:17 10° W 06:29:46 11° WNW 06:31:16 10° NW visible
28 Mar - 15:50:29 10° NNE 15:55:03 21° ENE 15:59:39 10° ESE daylight
28 Mar - 17:35:26 10° NW 17:41:08 35° WSW 17:46:53 10° S daylight
29 Mar - 04:47:00 10° SSW 04:52:50 90° SE 04:58:38 10° NNE visible
29 Mar - 15:58:32 10° N 16:04:12 35° ENE 16:09:56 10° SE daylight
29 Mar - 17:45:41 10° WNW 17:50:18 21° WSW 17:54:58 10° SSW daylight
30 Mar - 03:14:21 10° SE 03:15:51 11° ESE 03:17:21 10° E visible
30 Mar - 04:56:19 10° SW 05:01:57 52° WNW 05:07:33 10° N visible
30 Mar - 16:07:08 10° N 16:13:21 59° ENE 16:19:37 10° SSE daylight
30 Mar - 17:57:19 10° W 17:59:31 12° WSW 18:01:43 10° SW daylight
31 Mar - 03:20:50 10° SSE 03:25:03 20° ESE 03:29:12 10° ENE visible
31 Mar - 05:06:06 10° SW 05:11:05 29° WNW 05:16:03 10° N visible
31 Mar - 16:16:09 10° NNW 16:22:29 84° WSW 16:28:53 10° SSE daylight
01 Apr - 03:28:55 10° S 03:34:12 35° ESE 03:39:25 10° NE visible
01 Apr - 05:16:38 10° WSW 05:20:14 17° WNW 05:23:49 10° NNW visible
01 Apr - 14:42:19 10° NE 14:45:32 14° ENE 14:48:45 10° E daylight
01 Apr - 16:25:32 10° NW 16:31:38 50° WSW 16:37:48 10° S daylight
02 Apr - 03:37:34 10° S 03:43:19 62° ESE 03:49:01 10° NNE visible
02 Apr - 14:49:40 10° NNE 14:54:42 25° ENE 14:59:45 10° ESE daylight
02 Apr - 16:35:22 10° NW 16:40:47 30° WSW 16:46:15 10° S daylight
03 Apr - 03:46:38 10° SSW 03:52:27 76° WNW 03:58:13 10° NNE visible
03 Apr - 14:57:56 10° N 15:03:51 42° ENE 15:09:49 10° SE daylight
03 Apr - 16:45:54 10° WNW 16:49:58 18° WSW 16:54:03 10° SSW daylight
04 Apr - 02:12:41 10° SE 02:15:29 14° ESE 02:18:17 10° E night (unlit)
04 Apr - 03:56:05 10° SW 04:01:34 43° WNW 04:07:00 10° N night (unlit)
04 Apr - 15:06:41 10° NNW 15:12:59 70° ENE 15:19:21 10° SSE daylight
